| time (UTC) | temp F | wind direction | speed MPH | gust MPH | rain 1hr in | rain 24hr in | rain mn in | humidity % | barometer mb |
| 20260905100422 | 79 | 240 | 0.0 | 0.0 | 0.00 | 0.00 | 0.00 | 81 | 1013.9 |
| 20260905095921 | 79 | 231 | 0.0 | 0.0 | 0.00 | 0.00 | 0.00 | 81 | 1013.7 |
| 20260905095416 | 79 | 242 | 0.0 | 0.0 | 0.00 | 0.00 | 0.00 | 81 | 1013.8 |
| 20260905094911 | 79 | 229 | 0.0 | 1.0 | 0.00 | 0.00 | 0.00 | 81 | 1013.9 |
| 20260905094406 | 80 | 269 | 0.0 | 0.0 | 0.00 | 0.00 | 0.00 | 81 | 1013.7 |
| 20260905093904 | 80 | 119 | 0.0 | 0.0 | 0.00 | 0.00 | 0.00 | 80 | 1013.7 |
| 20260905093355 | 80 | 235 | 0.0 | 1.0 | 0.00 | 0.00 | 0.00 | 80 | 1014.0 |
| 20260905092850 | 80 | 224 | 0.0 | 0.0 | 0.00 | 0.00 | 0.00 | 79 | 1013.8 |
| 20260905092351 | 80 | 255 | 0.0 | 1.0 | 0.00 | 0.00 | 0.00 | 79 | 1013.9 |
| 20260905091845 | 80 | 308 | 0.0 | 0.0 | 0.00 | 0.00 | 0.00 | 79 | 1013.8 |
| 20260905091340 | 80 | 265 | 0.0 | 1.0 | 0.00 | 0.00 | 0.00 | 79 | 1013.8 |
| 20260905090838 | 81 | 249 | 0.0 | 2.0 | 0.00 | 0.00 | 0.00 | 79 | 1013.7 |
| 20260905090335 | 81 | 242 | 0.0 | 1.0 | 0.00 | 0.00 | 0.00 | 78 | 1013.7 |
| 20260905085834 | 81 | 239 | 1.0 | 2.0 | 0.00 | 0.00 | 0.00 | 78 | 1013.5 |
| 20260905085328 | 81 | 247 | 0.0 | 1.0 | 0.00 | 0.00 | 0.00 | 78 | 1013.4 |
| 20260905084824 | 81 | 244 | 0.0 | 1.0 | 0.00 | 0.00 | 0.00 | 78 | 1013.7 |
| 20260905084323 | 81 | 180 | 0.0 | 1.0 | 0.00 | 0.00 | 0.00 | 77 | 1013.4 |
| 20260905083818 | 82 | 89 | 0.0 | 0.0 | 0.00 | 0.00 | 0.00 | 77 | 1013.3 |
| 20260905083314 | 82 | 235 | 0.0 | 2.0 | 0.00 | 0.00 | 0.00 | 77 | 1013.3 |
| 20260905082809 | 82 | 119 | 0.0 | 1.0 | 0.00 | 0.00 | 0.00 | 77 | 1013.3 |
| 20260905082307 | 82 | 107 | 1.0 | 3.0 | 0.00 | 0.00 | 0.00 | 76 | 1013.4 |
| 20260905081806 | 82 | 113 | 0.0 | 0.0 | 0.00 | 0.00 | 0.00 | 76 | 1013.4 |
| 20260905081301 | 83 | 205 | 0.0 | 0.0 | 0.00 | 0.00 | 0.00 | 75 | 1013.2 |
| 20260905080800 | 83 | 322 | 0.0 | 1.0 | 0.00 | 0.00 | 0.00 | 75 | 1013.2 |
| 20260905080259 | 83 | 260 | 0.0 | 2.0 | 0.00 | 0.00 | 0.00 | 74 | 1013.1 |
| 20260905075758 | 83 | 297 | 0.0 | 2.0 | 0.00 | 0.00 | 0.00 | 74 | 1013.2 |
| 20260905075253 | 83 | 287 | 0.0 | 1.0 | 0.00 | 0.00 | 0.00 | 74 | 1013.2 |
| 20260905074752 | 83 | 255 | 0.0 | 1.0 | 0.00 | 0.00 | 0.00 | 74 | 1013.4 |
| 20260905074248 | 84 | 245 | 1.0 | 2.0 | 0.00 | 0.00 | 0.00 | 74 | 1013.3 |
| 20260905073743 | 84 | 256 | 0.0 | 2.0 | 0.00 | 0.00 | 0.00 | 74 | 1013.3 |
| 20260905073239 | 84 | 176 | 1.0 | 2.0 | 0.00 | 0.00 | 0.00 | 74 | 1013.6 |
| 20260905072738 | 83 | 219 | 0.0 | 2.0 | 0.00 | 0.00 | 0.00 | 75 | 1013.6 |
| 20260905072234 | 83 | 314 | 0.0 | 0.0 | 0.00 | 0.00 | 0.00 | 75 | 1013.6 |
| 20260905071730 | 83 | 299 | 0.0 | 1.0 | 0.00 | 0.00 | 0.00 | 75 | 1013.9 |
| 20260905071226 | 84 | 269 | 0.0 | 2.0 | 0.00 | 0.00 | 0.00 | 74 | 1013.8 |
| 20260905070720 | 84 | 246 | 1.0 | 1.0 | 0.00 | 0.00 | 0.00 | 74 | 1013.9 |
| 20260905070217 | 84 | 245 | 0.0 | 2.0 | 0.00 | 0.00 | 0.00 | 74 | 1013.7 |
| 20260905065715 | 84 | 259 | 2.0 | 2.0 | 0.00 | 0.00 | 0.00 | 74 | 1013.9 |
| 20260905065210 | 84 | 262 | 0.0 | 2.0 | 0.00 | 0.00 | 0.00 | 74 | 1014.1 |
| 20260905064705 | 84 | 240 | 0.0 | 2.0 | 0.00 | 0.00 | 0.00 | 74 | 1013.9 |
| 20260905064201 | 84 | 300 | 0.0 | 1.0 | 0.00 | 0.00 | 0.00 | 74 | 1014.0 |
| 20260905063659 | 84 | 269 | 0.0 | 0.0 | 0.00 | 0.00 | 0.00 | 74 | 1013.9 |
| 20260905063155 | 84 | 290 | 0.0 | 2.0 | 0.00 | 0.00 | 0.00 | 73 | 1013.9 |
| 20260905062651 | 84 | 261 | 0.0 | 1.0 | 0.00 | 0.00 | 0.00 | 73 | 1013.9 |
| 20260905062150 | 84 | 249 | 0.0 | 1.0 | 0.00 | 0.00 | 0.00 | 73 | 1013.9 |
| 20260905061644 | 84 | 283 | 0.0 | 2.0 | 0.00 | 0.00 | 0.00 | 73 | 1014.0 |
| 20260905061138 | 84 | 135 | 0.0 | 1.0 | 0.00 | 0.00 | 0.00 | 72 | 1013.8 |
| 20260905060634 | 85 | 62 | 0.0 | 0.0 | 0.00 | 0.00 | 0.00 | 72 | 1014.0 |
| 20260905060131 | 85 | 219 | 0.0 | 1.0 | 0.00 | 0.00 | 0.00 | 71 | 1013.9 |
| 20260905055628 | 85 | 157 | 0.0 | 2.0 | 0.00 | 0.00 | 0.00 | 70 | 1013.9 |
| 20260905055124 | 85 | 330 | 0.0 | 1.0 | 0.00 | 0.00 | 0.00 | 70 | 1014.1 |
| 20260905054620 | 85 | 279 | 0.0 | 2.0 | 0.00 | 0.00 | 0.00 | 70 | 1013.7 |
| 20260905054115 | 86 | 212 | 0.0 | 1.0 | 0.00 | 0.00 | 0.00 | 70 | 1013.6 |
| 20260905053615 | 86 | 333 | 0.0 | 2.0 | 0.00 | 0.00 | 0.00 | 69 | 1013.6 |
| 20260905053110 | 86 | 317 | 1.0 | 2.0 | 0.00 | 0.00 | 0.00 | 69 | 1013.5 |
| 20260905052609 | 86 | 322 | 1.0 | 2.0 | 0.00 | 0.00 | 0.00 | 69 | 1013.7 |
| 20260905052104 | 86 | 213 | 1.0 | 1.0 | 0.00 | 0.00 | 0.00 | 68 | 1013.5 |
| 20260905051600 | 86 | 235 | 0.0 | 2.0 | 0.00 | 0.00 | 0.00 | 68 | 1013.5 |
| 20260905051056 | 87 | 299 | 0.0 | 2.0 | 0.00 | 0.00 | 0.00 | 68 | 1013.7 |
| 20260905050551 | 87 | 160 | 0.0 | 2.0 | 0.00 | 0.00 | 0.00 | 67 | 1013.6 |
| 20260905050048 | 87 | 259 | 0.0 | 2.0 | 0.00 | 0.00 | 0.00 | 67 | 1013.4 |
| 20260905045543 | 87 | 227 | 1.0 | 2.0 | 0.00 | 0.00 | 0.00 | 67 | 1013.6 |
| 20260905045038 | 87 | 205 | 1.0 | 2.0 | 0.00 | 0.00 | 0.00 | 66 | 1013.6 |
| 20260905044532 | 87 | 315 | 0.0 | 3.0 | 0.00 | 0.00 | 0.00 | 66 | 1013.4 |
| 20260905044032 | 87 | 301 | 2.0 | 4.0 | 0.00 | 0.00 | 0.00 | 66 | 1013.5 |
| 20260905043532 | 87 | 294 | 1.0 | 2.0 | 0.00 | 0.00 | 0.00 | 66 | 1013.5 |
| 20260905043027 | 87 | 207 | 0.0 | 3.0 | 0.00 | 0.00 | 0.00 | 66 | 1013.3 |
| 20260905042526 | 87 | 277 | 0.0 | 1.0 | 0.00 | 0.00 | 0.00 | 66 | 1013.4 |
| 20260905042021 | 88 | 313 | 2.0 | 4.0 | 0.00 | 0.00 | 0.00 | 65 | 1013.4 |
| 20260905041517 | 88 | 301 | 2.0 | 2.0 | 0.00 | 0.00 | 0.00 | 65 | 1013.5 |
| 20260905041012 | 88 | 250 | 1.0 | 2.0 | 0.00 | 0.00 | 0.00 | 65 | 1013.4 |
| 20260905040511 | 88 | 247 | 0.0 | 2.0 | 0.00 | 0.00 | 0.00 | 65 | 1013.7 |
| 20260905040010 | 88 | 311 | 2.0 | 2.0 | 0.00 | 0.00 | 0.00 | 64 | 1013.5 |
| 20260905035506 | 88 | 276 | 2.0 | 4.0 | 0.00 | 0.00 | 0.00 | 64 | 1013.5 |
| 20260905035003 | 88 | 333 | 0.0 | 2.0 | 0.00 | 0.00 | 0.00 | 64 | 1013.6 |
| 20260905034458 | 89 | 279 | 2.0 | 4.0 | 0.00 | 0.00 | 0.00 | 64 | 1013.5 |
| 20260905033956 | 89 | 306 | 0.0 | 4.0 | 0.00 | 0.00 | 0.00 | 64 | 1013.5 |
| 20260905033451 | 89 | 322 | 2.0 | 3.0 | 0.00 | 0.00 | 0.00 | 63 | 1013.7 |
| 20260905032946 | 89 | 335 | 1.0 | 3.0 | 0.00 | 0.00 | 0.00 | 63 | 1013.7 |
| 20260905032442 | 89 | 284 | 1.0 | 2.0 | 0.00 | 0.00 | 0.00 | 62 | 1013.5 |
| 20260905031937 | 89 | 286 | 2.0 | 2.0 | 0.00 | 0.00 | 0.00 | 62 | 1013.5 |
| 20260905031433 | 89 | 329 | 2.0 | 4.0 | 0.00 | 0.00 | 0.00 | 61 | 1013.6 |
| 20260905030928 | 89 | 323 | 2.0 | 2.0 | 0.00 | 0.00 | 0.00 | 61 | 1013.6 |
| 20260905030423 | 90 | 264 | 1.0 | 1.0 | 0.00 | 0.00 | 0.00 | 61 | 1013.4 |
| 20260905025922 | 90 | 232 | 1.0 | 3.0 | 0.00 | 0.00 | 0.00 | 60 | 1013.5 |
| 20260905025417 | 90 | 310 | 0.0 | 2.0 | 0.00 | 0.00 | 0.00 | 60 | 1013.3 |
| 20260905024914 | 90 | 290 | 0.0 | 2.0 | 0.00 | 0.00 | 0.00 | 60 | 1013.3 |
| 20260905024414 | 90 | 249 | 0.0 | 2.0 | 0.00 | 0.00 | 0.00 | 59 | 1013.2 |
| 20260905023909 | 90 | 242 | 0.0 | 2.0 | 0.00 | 0.00 | 0.00 | 59 | 1013.1 |
| 20260905023404 | 90 | 295 | 2.0 | 3.0 | 0.00 | 0.00 | 0.00 | 59 | 1013.2 |
| 20260905022903 | 90 | 303 | 2.0 | 2.0 | 0.00 | 0.00 | 0.00 | 59 | 1013.0 |
| 20260905022353 | 90 | 308 | 1.0 | 2.0 | 0.00 | 0.00 | 0.00 | 59 | 1012.7 |
| 20260905021848 | 90 | 266 | 1.0 | 1.0 | 0.00 | 0.00 | 0.00 | 59 | 1012.6 |
| 20260905021343 | 90 | 326 | 1.0 | 3.0 | 0.00 | 0.00 | 0.00 | 59 | 1012.7 |
| 20260905020838 | 90 | 246 | 1.0 | 2.0 | 0.00 | 0.00 | 0.00 | 59 | 1012.6 |
| 20260905020332 | 90 | 263 | 1.0 | 2.0 | 0.00 | 0.00 | 0.00 | 59 | 1012.4 |
| 20260905015831 | 91 | 266 | 1.0 | 2.0 | 0.00 | 0.00 | 0.00 | 59 | 1012.4 |
| 20260905015331 | 91 | 258 | 0.0 | 3.0 | 0.00 | 0.00 | 0.00 | 58 | 1012.3 |
| 20260905014825 | 91 | 283 | 1.0 | 2.0 | 0.00 | 0.00 | 0.00 | 58 | 1012.2 |
| 20260905014321 | 91 | 249 | 0.0 | 2.0 | 0.00 | 0.00 | 0.00 | 57 | 1012.3 |
| 20260905013815 | 92 | 232 | 2.0 | 3.0 | 0.00 | 0.00 | 0.00 | 56 | 1012.3 |
| 20260905013312 | 92 | 255 | 0.0 | 2.0 | 0.00 | 0.00 | 0.00 | 56 | 1012.0 |
| 20260905012807 | 92 | 236 | 0.0 | 1.0 | 0.00 | 0.00 | 0.00 | 55 | 1012.3 |
| 20260905012306 | 93 | 251 | 1.0 | 2.0 | 0.00 | 0.00 | 0.00 | 55 | 1012.3 |
| 20260905011759 | 93 | 305 | 2.0 | 3.0 | 0.00 | 0.00 | 0.00 | 54 | 1012.3 |
| 20260905011254 | 93 | 330 | 3.0 | 4.0 | 0.00 | 0.00 | 0.00 | 54 | 1012.1 |
| 20260905010749 | 93 | 304 | 2.0 | 2.0 | 0.00 | 0.00 | 0.00 | 54 | 1012.2 |
| 20260905010244 | 93 | 285 | 1.0 | 2.0 | 0.00 | 0.00 | 0.00 | 54 | 1011.9 |
| 20260905005741 | 93 | 290 | 2.0 | 2.0 | 0.00 | 0.00 | 0.00 | 54 | 1012.2 |
| 20260905005236 | 93 | 301 | 0.0 | 3.0 | 0.00 | 0.00 | 0.00 | 53 | 1011.9 |
| 20260905004736 | 94 | 279 | 1.0 | 2.0 | 0.00 | 0.00 | 0.00 | 53 | 1011.7 |
| 20260905004231 | 94 | 307 | 0.0 | 2.0 | 0.00 | 0.00 | 0.00 | 52 | 1011.8 |
| 20260905003731 | 94 | 286 | 2.0 | 3.0 | 0.00 | 0.00 | 0.00 | 52 | 1011.7 |
| 20260905003227 | 95 | 281 | 2.0 | 4.0 | 0.00 | 0.00 | 0.00 | 52 | 1011.8 |
| 20260905002723 | 95 | 303 | 2.0 | 5.0 | 0.00 | 0.00 | 0.00 | 50 | 1011.7 |
| 20260905002222 | 95 | 257 | 2.0 | 2.0 | 0.00 | 0.00 | 0.00 | 50 | 1011.6 |
| 20260905001717 | 96 | 300 | 3.0 | 3.0 | 0.00 | 0.00 | 0.00 | 50 | 1011.7 |
| 20260905001216 | 96 | 301 | 2.0 | 4.0 | 0.00 | 0.00 | 0.00 | 49 | 1011.7 |
| 20260905000712 | 96 | 267 | 2.0 | 3.0 | 0.00 | 0.00 | 0.00 | 49 | 1011.6 |
| 20260905000208 | 97 | 111 | 0.0 | 3.0 | 0.00 | 0.00 | 0.00 | 48 | 1011.5 |
| 20260904235707 | 97 | 265 | 2.0 | 3.0 | 0.00 | 0.00 | 0.00 | 48 | 1011.8 |
| 20260904235202 | 98 | 284 | 0.0 | 3.0 | 0.00 | 0.00 | 0.00 | 48 | 1011.5 |
| 20260904234657 | 97 | 277 | 1.0 | 4.0 | 0.00 | 0.00 | 0.00 | 48 | 1011.6 |
| 20260904234152 | 98 | 274 | 7.0 | 8.0 | 0.00 | 0.00 | 0.00 | 47 | 1011.4 |
| 20260904233648 | 99 | 278 | 2.0 | 3.0 | 0.00 | 0.00 | 0.00 | 47 | 1011.4 |
| 20260904233144 | 99 | 271 | 5.0 | 5.0 | 0.00 | 0.00 | 0.00 | 46 | 1011.4 |
| 20260904232640 | 100 | 284 | 2.0 | 4.0 | 0.00 | 0.00 | 0.00 | 46 | 1011.4 |
| 20260904232136 | 100 | 279 | 3.0 | 4.0 | 0.00 | 0.00 | 0.00 | 46 | 1011.4 |
| 20260904231632 | 99 | 308 | 5.0 | 5.0 | 0.00 | 0.00 | 0.00 | 46 | 1011.3 |
| 20260904231127 | 99 | 294 | 3.0 | 6.0 | 0.00 | 0.00 | 0.00 | 47 | 1011.3 |
| 20260904230627 | 99 | 289 | 2.0 | 6.0 | 0.00 | 0.00 | 0.00 | 47 | 1011.3 |
| 20260904230123 | 99 | 299 | 5.0 | 6.0 | 0.00 | 0.00 | 0.00 | 48 | 1011.4 |
| 20260904225620 | 98 | 289 | 4.0 | 6.0 | 0.00 | 0.00 | 0.00 | 48 | 1011.4 |
| 20260904225115 | 99 | 265 | 4.0 | 6.0 | 0.00 | 0.00 | 0.00 | 48 | 1011.4 |
| 20260904224609 | 98 | 277 | 3.0 | 6.0 | 0.00 | 0.00 | 0.00 | 49 | 1011.6 |
| 20260904224104 | 98 | 282 | 1.0 | 8.0 | 0.00 | 0.00 | 0.00 | 49 | 1011.6 |
| 20260904223603 | 98 | 292 | 3.0 | 7.0 | 0.00 | 0.00 | 0.00 | 49 | 1011.6 |
| 20260904223059 | 98 | 268 | 2.0 | 7.0 | 0.00 | 0.00 | 0.00 | 50 | 1011.6 |
| 20260904222555 | 99 | 312 | 6.0 | 6.0 | 0.00 | 0.00 | 0.00 | 49 | 1011.6 |
| 20260904222049 | 99 | 293 | 4.0 | 4.0 | 0.00 | 0.00 | 0.00 | 49 | 1011.6 |
| 20260904221544 | 98 | 283 | 3.0 | 6.0 | 0.00 | 0.00 | 0.00 | 50 | 1011.5 |
| 20260904221039 | 98 | 276 | 5.0 | 6.0 | 0.00 | 0.00 | 0.00 | 50 | 1011.6 |
| 20260904220538 | 99 | 290 | 3.0 | 6.0 | 0.00 | 0.00 | 0.00 | 49 | 1011.4 |
| 20260904220034 | 99 | 256 | 4.0 | 4.0 | 0.00 | 0.00 | 0.00 | 49 | 1011.6 |
| 20260904215528 | 100 | 287 | 3.0 | 5.0 | 0.00 | 0.00 | 0.00 | 48 | 1011.7 |
| 20260904215024 | 100 | 297 | 3.0 | 4.0 | 0.00 | 0.00 | 0.00 | 48 | 1011.6 |
| 20260904214520 | 99 | 302 | 2.0 | 4.0 | 0.00 | 0.00 | 0.00 | 49 | 1011.7 |
| 20260904214015 | 98 | 315 | 2.0 | 3.0 | 0.00 | 0.00 | 0.00 | 49 | 1011.7 |
| 20260904213512 | 100 | 295 | 5.0 | 5.0 | 0.00 | 0.00 | 0.00 | 47 | 1011.7 |
| 20260904213010 | 102 | 272 | 2.0 | 5.0 | 0.00 | 0.00 | 0.00 | 46 | 1011.9 |
| 20260904212508 | 102 | 252 | 5.0 | 7.0 | 0.00 | 0.00 | 0.00 | 46 | 1011.9 |
| 20260904212003 | 101 | 240 | 3.0 | 5.0 | 0.00 | 0.00 | 0.00 | 46 | 1012.0 |
| 20260904211458 | 101 | 249 | 2.0 | 6.0 | 0.00 | 0.00 | 0.00 | 46 | 1011.9 |
| 20260904210954 | 102 | 307 | 3.0 | 5.0 | 0.00 | 0.00 | 0.00 | 46 | 1012.2 |
| 20260904210453 | 101 | 290 | 2.0 | 4.0 | 0.00 | 0.00 | 0.00 | 46 | 1012.0 |
| 20260904205949 | 101 | 265 | 0.0 | 5.0 | 0.00 | 0.00 | 0.00 | 47 | 1012.1 |
| 20260904205444 | 101 | 316 | 2.0 | 3.0 | 0.00 | 0.00 | 0.00 | 46 | 1012.2 |
| 20260904204941 | 102 | 322 | 0.0 | 4.0 | 0.00 | 0.00 | 0.00 | 46 | 1012.2 |
| 20260904204437 | 102 | 277 | 4.0 | 6.0 | 0.00 | 0.00 | 0.00 | 45 | 1012.2 |
| 20260904203933 | 102 | 295 | 2.0 | 3.0 | 0.00 | 0.00 | 0.00 | 45 | 1012.3 |
| 20260904203429 | 101 | 293 | 3.0 | 4.0 | 0.00 | 0.00 | 0.00 | 47 | 1012.5 |
| 20260904202925 | 100 | 266 | 4.0 | 4.0 | 0.00 | 0.00 | 0.00 | 47 | 1012.4 |
| 20260904202421 | 99 | 296 | 4.0 | 6.0 | 0.00 | 0.00 | 0.00 | 48 | 1012.7 |
| 20260904201916 | 100 | 301 | 4.0 | 5.0 | 0.00 | 0.00 | 0.00 | 47 | 1012.6 |
| 20260904201411 | 101 | 326 | 3.0 | 5.0 | 0.00 | 0.00 | 0.00 | 47 | 1012.7 |
| 20260904200907 | 102 | 284 | 1.0 | 4.0 | 0.00 | 0.00 | 0.00 | 47 | 1012.8 |
| 20260904200405 | 100 | 233 | 2.0 | 4.0 | 0.00 | 0.00 | 0.00 | 48 | 1012.7 |
| 20260904195859 | 100 | 309 | 3.0 | 5.0 | 0.00 | 0.00 | 0.00 | 49 | 1012.9 |
| 20260904195357 | 100 | 308 | 4.0 | 5.0 | 0.00 | 0.00 | 0.00 | 48 | 1013.1 |
| 20260904194852 | 99 | 308 | 2.0 | 3.0 | 0.00 | 0.00 | 0.00 | 50 | 1013.2 |
| 20260904194351 | 98 | 321 | 2.0 | 3.0 | 0.00 | 0.00 | 0.00 | 50 | 1013.4 |
| 20260904193847 | 99 | 328 | 1.0 | 4.0 | 0.00 | 0.00 | 0.00 | 48 | 1013.5 |
| 20260904193342 | 99 | 114 | 1.0 | 6.0 | 0.00 | 0.00 | 0.00 | 49 | 1013.4 |
| 20260904192838 | 99 | 299 | 2.0 | 4.0 | 0.00 | 0.00 | 0.00 | 49 | 1013.5 |
| 20260904192333 | 96 | 287 | 2.0 | 5.0 | 0.00 | 0.00 | 0.00 | 52 | 1013.4 |
| 20260904191830 | 97 | 317 | 3.0 | 5.0 | 0.00 | 0.00 | 0.00 | 51 | 1013.5 |
| 20260904191326 | 98 | 264 | 1.0 | 5.0 | 0.00 | 0.00 | 0.00 | 51 | 1013.5 |
| 20260904190822 | 98 | 248 | 4.0 | 5.0 | 0.00 | 0.00 | 0.00 | 50 | 1013.6 |
| 20260904190317 | 99 | 346 | 1.0 | 5.0 | 0.00 | 0.00 | 0.00 | 51 | 1013.7 |
| 20260904185814 | 99 | 244 | 0.0 | 3.0 | 0.00 | 0.00 | 0.00 | 50 | 1013.7 |
| 20260904185309 | 99 | 38 | 3.0 | 6.0 | 0.00 | 0.00 | 0.00 | 50 | 1013.7 |
| 20260904184808 | 98 | 241 | 4.0 | 5.0 | 0.00 | 0.00 | 0.00 | 51 | 1013.7 |
| 20260904184303 | 97 | 154 | 0.0 | 3.0 | 0.00 | 0.00 | 0.00 | 51 | 1013.7 |
| 20260904183759 | 97 | 287 | 1.0 | 3.0 | 0.00 | 0.00 | 0.00 | 51 | 1013.8 |
| 20260904183253 | 98 | 291 | 3.0 | 4.0 | 0.00 | 0.00 | 0.00 | 51 | 1013.8 |
| 20260904182749 | 96 | 282 | 3.0 | 5.0 | 0.00 | 0.00 | 0.00 | 54 | 1014.0 |
| 20260904182244 | 95 | 319 | 0.0 | 5.0 | 0.00 | 0.00 | 0.00 | 55 | 1014.3 |
| 20260904181739 | 97 | 307 | 1.0 | 4.0 | 0.00 | 0.00 | 0.00 | 53 | 1014.3 |
| 20260904181239 | 98 | 253 | 6.0 | 6.0 | 0.00 | 0.00 | 0.00 | 51 | 1014.3 |
| 20260904180734 | 97 | 327 | 1.0 | 2.0 | 0.00 | 0.00 | 0.00 | 52 | 1014.3 |
| 20260904180230 | 96 | 163 | 2.0 | 3.0 | 0.00 | 0.00 | 0.00 | 51 | 1014.5 |
| 20260904175729 | 96 | 260 | 2.0 | 4.0 | 0.00 | 0.00 | 0.00 | 51 | 1014.7 |
| 20260904175227 | 97 | 251 | 2.0 | 3.0 | 0.00 | 0.00 | 0.00 | 50 | 1014.6 |
| 20260904174722 | 97 | 83 | 2.0 | 4.0 | 0.00 | 0.00 | 0.00 | 50 | 1014.7 |
| 20260904174218 | 97 | 272 | 1.0 | 3.0 | 0.00 | 0.00 | 0.00 | 52 | 1014.5 |
| 20260904173714 | 97 | 285 | 2.0 | 3.0 | 0.00 | 0.00 | 0.00 | 52 | 1014.8 |
| 20260904173208 | 96 | 283 | 3.0 | 4.0 | 0.00 | 0.00 | 0.00 | 53 | 1014.9 |
| 20260904172705 | 96 | 248 | 3.0 | 4.0 | 0.00 | 0.00 | 0.00 | 53 | 1015.0 |
| 20260904172204 | 96 | 241 | 2.0 | 3.0 | 0.00 | 0.00 | 0.00 | 55 | 1015.1 |
| 20260904171700 | 95 | 269 | 5.0 | 5.0 | 0.00 | 0.00 | 0.00 | 56 | 1015.0 |
| 20260904171154 | 95 | 145 | 2.0 | 3.0 | 0.00 | 0.00 | 0.00 | 57 | 1015.1 |
| 20260904170651 | 95 | 299 | 2.0 | 3.0 | 0.00 | 0.00 | 0.00 | 57 | 1014.9 |
| 20260904170146 | 96 | 18 | 2.0 | 3.0 | 0.00 | 0.00 | 0.00 | 57 | 1015.2 |
| 20260904165645 | 95 | 305 | 2.0 | 2.0 | 0.00 | 0.00 | 0.00 | 58 | 1015.1 |
| 20260904165144 | 94 | 305 | 2.0 | 2.0 | 0.00 | 0.00 | 0.00 | 58 | 1015.4 |
| 20260904164639 | 94 | 326 | 2.0 | 5.0 | 0.00 | 0.00 | 0.00 | 59 | 1015.2 |
| 20260904164134 | 94 | 133 | 6.0 | 6.0 | 0.00 | 0.00 | 0.00 | 59 | 1015.1 |
| 20260904163630 | 93 | 322 | 4.0 | 6.0 | 0.00 | 0.00 | 0.00 | 61 | 1015.3 |
| 20260904163126 | 93 | 317 | 2.0 | 4.0 | 0.00 | 0.00 | 0.00 | 61 | 1015.3 |
| 20260904162620 | 93 | 257 | 1.0 | 4.0 | 0.00 | 0.00 | 0.00 | 62 | 1015.2 |
| 20260904162115 | 93 | 299 | 4.0 | 4.0 | 0.00 | 0.00 | 0.00 | 63 | 1015.2 |
| 20260904161610 | 93 | 228 | 0.0 | 4.0 | 0.00 | 0.00 | 0.00 | 64 | 1015.2 |
| 20260904161105 | 92 | 271 | 1.0 | 3.0 | 0.00 | 0.00 | 0.00 | 65 | 1015.2 |
| 20260904160601 | 92 | 310 | 0.0 | 3.0 | 0.00 | 0.00 | 0.00 | 65 | 1015.2 |
| 20260904160057 | 91 | 45 | 2.0 | 4.0 | 0.00 | 0.00 | 0.00 | 66 | 1015.2 |
| 20260904155555 | 90 | 311 | 3.0 | 5.0 | 0.00 | 0.00 | 0.00 | 69 | 1015.3 |
| 20260904155050 | 90 | 63 | 2.0 | 4.0 | 0.00 | 0.00 | 0.00 | 70 | 1015.5 |
| 20260904154543 | 90 | 5 | 2.0 | 4.0 | 0.00 | 0.00 | 0.00 | 69 | 1015.3 |
| 20260904154038 | 89 | 263 | 2.0 | 5.0 | 0.00 | 0.00 | 0.00 | 72 | 1015.3 |
| 20260904153538 | 89 | 296 | 6.0 | 6.0 | 0.00 | 0.00 | 0.00 | 71 | 1015.3 |
| 20260904153034 | 91 | 310 | 2.0 | 2.0 | 0.00 | 0.00 | 0.00 | 70 | 1015.1 |
| 20260904152530 | 89 | 310 | 4.0 | 4.0 | 0.00 | 0.00 | 0.00 | 73 | 1015.2 |
| 20260904152025 | 89 | 167 | 0.0 | 2.0 | 0.00 | 0.00 | 0.00 | 74 | 1015.0 |
| 20260904151514 | 89 | 248 | 2.0 | 3.0 | 0.00 | 0.00 | 0.00 | 74 | 1015.2 |
| 20260904151009 | 88 | 308 | 3.0 | 4.0 | 0.00 | 0.00 | 0.00 | 77 | 1015.2 |
| 20260904150508 | 88 | 262 | 2.0 | 3.0 | 0.00 | 0.00 | 0.00 | 76 | 1015.3 |
| 20260904150003 | 87 | 154 | 0.0 | 3.0 | 0.00 | 0.00 | 0.00 | 78 | 1015.2 |
| 20260904145458 | 87 | 328 | 3.0 | 5.0 | 0.00 | 0.00 | 0.00 | 78 | 1015.0 |
| 20260904144953 | 87 | 315 | 2.0 | 5.0 | 0.00 | 0.00 | 0.00 | 78 | 1014.9 |
| 20260904144448 | 87 | 337 | 2.0 | 3.0 | 0.00 | 0.00 | 0.00 | 80 | 1015.2 |
| 20260904143944 | 87 | 60 | 0.0 | 2.0 | 0.00 | 0.00 | 0.00 | 80 | 1015.2 |
| 20260904143440 | 86 | 219 | 1.0 | 3.0 | 0.00 | 0.00 | 0.00 | 81 | 1015.3 |
| 20260904142936 | 85 | 310 | 3.0 | 4.0 | 0.00 | 0.00 | 0.00 | 83 | 1015.3 |
| 20260904142433 | 85 | 323 | 2.0 | 4.0 | 0.00 | 0.00 | 0.00 | 84 | 1015.3 |
| 20260904141927 | 84 | 299 | 4.0 | 4.0 | 0.00 | 0.00 | 0.00 | 86 | 1015.1 |
| 20260904141422 | 83 | 283 | 3.0 | 4.0 | 0.00 | 0.00 | 0.00 | 87 | 1015.1 |
| 20260904140919 | 83 | 305 | 3.0 | 4.0 | 0.00 | 0.00 | 0.00 | 88 | 1015.1 |
| 20260904140418 | 83 | 294 | 2.0 | 3.0 | 0.00 | 0.00 | 0.00 | 88 | 1015.1 |
| 20260904135917 | 82 | 203 | 0.0 | 3.0 | 0.00 | 0.00 | 0.00 | 88 | 1015.1 |
| 20260904135417 | 82 | 264 | 2.0 | 2.0 | 0.00 | 0.00 | 0.00 | 89 | 1015.0 |
| 20260904134914 | 82 | 248 | 0.0 | 4.0 | 0.00 | 0.00 | 0.00 | 88 | 1015.0 |
| 20260904134413 | 83 | 264 | 2.0 | 3.0 | 0.00 | 0.00 | 0.00 | 88 | 1015.0 |
| 20260904133909 | 82 | 318 | 0.0 | 3.0 | 0.00 | 0.00 | 0.00 | 88 | 1014.8 |
| 20260904133409 | 82 | 291 | 7.0 | 7.0 | 0.00 | 0.00 | 0.00 | 88 | 1015.0 |
| 20260904132904 | 82 | 211 | 1.0 | 2.0 | 0.00 | 0.00 | 0.00 | 89 | 1014.7 |
| 20260904132359 | 81 | 278 | 1.0 | 3.0 | 0.00 | 0.00 | 0.00 | 90 | 1014.8 |
| 20260904131859 | 81 | 321 | 2.0 | 3.0 | 0.00 | 0.00 | 0.00 | 90 | 1014.8 |
| 20260904131354 | 80 | 320 | 2.0 | 2.0 | 0.00 | 0.00 | 0.00 | 91 | 1014.6 |
| 20260904130849 | 80 | 259 | 0.0 | 2.0 | 0.00 | 0.00 | 0.00 | 92 | 1014.7 |
| 20260904130348 | 79 | 347 | 2.0 | 2.0 | 0.00 | 0.00 | 0.00 | 93 | 1014.7 |
| 20260904125844 | 78 | 320 | 0.0 | 1.0 | 0.00 | 0.00 | 0.00 | 94 | 1014.7 |
| 20260904125340 | 77 | 307 | 0.0 | 2.0 | 0.00 | 0.00 | 0.00 | 96 | 1014.5 |
| 20260904124839 | 77 | 309 | 1.0 | 2.0 | 0.00 | 0.00 | 0.00 | 96 | 1014.6 |
| 20260904124335 | 77 | 283 | 1.0 | 2.0 | 0.00 | 0.00 | 0.00 | 97 | 1014.7 |
| 20260904123831 | 77 | 274 | 1.0 | 2.0 | 0.00 | 0.00 | 0.00 | 97 | 1014.5 |
| 20260904123326 | 77 | 286 | 1.0 | 2.0 | 0.00 | 0.00 | 0.00 | 96 | 1014.4 |
| 20260904122820 | 76 | 252 | 0.0 | 2.0 | 0.00 | 0.00 | 0.00 | 96 | 1014.6 |
| 20260904122315 | 76 | 253 | 0.0 | 2.0 | 0.00 | 0.00 | 0.00 | 96 | 1014.5 |
| 20260904121810 | 76 | 262 | 0.0 | 3.0 | 0.00 | 0.00 | 0.00 | 96 | 1014.3 |
| 20260904121306 | 76 | 288 | 3.0 | 3.0 | 0.00 | 0.00 | 0.00 | 96 | 1014.5 |
| 20260904120803 | 76 | 284 | 0.0 | 3.0 | 0.00 | 0.00 | 0.00 | 96 | 1014.4 |
| 20260904120258 | 76 | 316 | 2.0 | 3.0 | 0.00 | 0.00 | 0.00 | 96 | 1014.4 |
| 20260904115753 | 76 | 310 | 1.0 | 2.0 | 0.00 | 0.00 | 0.00 | 96 | 1014.3 |
| 20260904115248 | 76 | 237 | 3.0 | 3.0 | 0.00 | 0.00 | 0.00 | 96 | 1014.2 |
| 20260904114743 | 76 | 244 | 1.0 | 2.0 | 0.00 | 0.00 | 0.00 | 96 | 1014.2 |
| 20260904114242 | 76 | 230 | 0.0 | 2.0 | 0.00 | 0.00 | 0.00 | 95 | 1014.2 |
| 20260904113737 | 76 | 240 | 0.0 | 1.0 | 0.00 | 0.00 | 0.00 | 95 | 1014.1 |
| 20260904113237 | 76 | 334 | 0.0 | 1.0 | 0.00 | 0.00 | 0.00 | 95 | 1014.0 |
| 20260904112732 | 76 | 282 | 0.0 | 0.0 | 0.00 | 0.00 | 0.00 | 95 | 1014.1 |
| 20260904112227 | 76 | 1 | 0.0 | 2.0 | 0.00 | 0.00 | 0.00 | 95 | 1014.0 |
| 20260904111723 | 76 | 104 | 0.0 | 2.0 | 0.00 | 0.00 | 0.00 | 94 | 1014.1 |
| 20260904111219 | 76 | 279 | 1.0 | 2.0 | 0.00 | 0.00 | 0.00 | 94 | 1013.9 |
| 20260904110714 | 76 | 302 | 0.0 | 2.0 | 0.00 | 0.00 | 0.00 | 94 | 1014.1 |
| 20260904110213 | 76 | 315 | 0.0 | 1.0 | 0.00 | 0.00 | 0.00 | 94 | 1014.0 |
| 20260904105708 | 76 | 230 | 2.0 | 3.0 | 0.00 | 0.00 | 0.00 | 93 | 1013.8 |
| 20260904105203 | 76 | 226 | 2.0 | 2.0 | 0.00 | 0.00 | 0.00 | 93 | 1014.0 |
| 20260904104658 | 76 | 319 | 2.0 | 2.0 | 0.00 | 0.00 | 0.00 | 93 | 1014.1 |
| 20260904104154 | 76 | 309 | 2.0 | 2.0 | 0.00 | 0.00 | 0.00 | 93 | 1013.8 |
| 20260904103650 | 76 | 257 | 1.0 | 2.0 | 0.00 | 0.00 | 0.00 | 92 | 1013.7 |
| 20260904103145 | 77 | 282 | 1.0 | 3.0 | 0.00 | 0.00 | 0.00 | 92 | 1013.7 |
| 20260904102641 | 77 | 281 | 1.0 | 2.0 | 0.00 | 0.00 | 0.00 | 92 | 1013.7 |
| 20260904102136 | 77 | 300 | 3.0 | 3.0 | 0.00 | 0.00 | 0.00 | 92 | 1013.8 |
| 20260904101633 | 77 | 243 | 0.0 | 2.0 | 0.00 | 0.00 | 0.00 | 91 | 1013.7 |
| 20260904101128 | 77 | 230 | 0.0 | 2.0 | 0.00 | 0.00 | 0.00 | 91 | 1013.7 |